Regional Weather Roundup
Issued by NWS

Home | Current Version | Previous Version | Graphics & Text | Print | Product List | Glossary Off
Versions: 1 2 3 4 5 6 7 8 9 10 11 12 13 14 15 16 17 18 19 20 21 22 23 24 25 26 27 28 29 30 31 32 33 34 35 36 37 38 39 40 41 42 43 44 45 46 47 48 49 50

000
ASUS43 KTOP 241808
RWRKS

WEATHER ROUNDUP FOR KANSAS
NATIONAL WEATHER SERVICE GOODLAND KS
1200 PM CST WED DEC 24 2014

NOTE:  "FAIR" INDICATES FEW OR NO CLOUDS BELOW 12,000 FEET WITH NO
SIGNIFICANT WEATHER AND/OR OBSTRUCTIONS TO VISIBILITY.

KSZ001>006-013>018-027>032-041>047-241900-
NORTHWEST KANSAS

CITY           SKY/WX    TMP DP  RH WIND       PRES   REMARKS
GOODLAND       SUNNY     36  16  44 SW14      29.88F WCI  27
6HR MIN TEMP:  14; 6HR MAX TEMP:  36;

HAYS           FAIR      37  19  48 W14       29.93F WCI  29
HILL CITY      FAIR      38  19  46 W12       29.93F WCI  30
6HR MIN TEMP:  23; 6HR MAX TEMP:  38;

RUSSELL        FAIR      38  25  59 NW14      29.90F WCI  30
6HR MIN TEMP:  25; 6HR MAX TEMP:  38;

$$

KSZ061>065-074>080-084>089-241900-
SOUTHWEST KANSAS

CITY           SKY/WX    TMP DP  RH WIND       PRES   REMARKS
DODGE CITY     FAIR      36  23  59 W13       29.97F WCI  27
6HR MIN TEMP:  22; 6HR MAX TEMP:  36;

ELKHART          N/A     39  14  36 W9          N/A
GARDEN CITY    FAIR      35  22  58 W12       29.96F WCI  27
6HR MIN TEMP:  17; 6HR MAX TEMP:  35;

GREAT BEND     FAIR      36  23  60 NW12      29.95F WCI  27
LIBERAL        FAIR      39  23  52 W12G17    30.01F WCI  32
PRATT          FAIR      37  23  56 NW10G22   29.96F WCI  30
$$

KSZ066>073-081>083-090>101-241900-
SOUTHEAST KANSAS

CITY           SKY/WX    TMP DP  RH WIND       PRES   REMARKS
CHANUTE        CLOUDY    37  31  78 NW17      29.91F WCI  27
6HR MIN TEMP:  34; 6HR MAX TEMP:  38; 6HR PCP:  0.01;

COFFEYVILLE    CLOUDY    38  30  73 NW13      29.94F WCI  30
6HR MIN TEMP:  35; 6HR MAX TEMP:  38;

HUTCHINSON     FAIR      37  29  72 W12       29.93F WCI  29
6HR MIN TEMP:  31; 6HR MAX TEMP:  37;

NEWTON         CLOUDY    34  25  69 NW13      29.94F WCI  25
PARSONS        CLOUDY    39  32  76 NW13      29.93F WCI  31
6HR MIN TEMP:  35; 6HR MAX TEMP:  39; 6HR PCP: TRACE;

WICHITA INTL   CLOUDY    38  28  67 NW13      29.95F WCI  30
6HR MIN TEMP:  34; 6HR MAX TEMP:  38;

WICHITA JABRA  CLOUDY    35  28  75 NW13      29.93F WCI  26
6HR MIN TEMP:  32; 6HR MAX TEMP:  36;

WICHITA MCCONL CLOUDY    36  28  73 NW9       29.94F
WINFIELD       CLOUDY    37  31  78 NW13      29.97F WCI  29
6HR MIN TEMP:  33; 6HR MAX TEMP:  38;

$$

KSZ007>012-019>026-033>040-048>060-102>105-241900-
NORTHEAST KANSAS

CITY           SKY/WX    TMP DP  RH WIND       PRES   REMARKS
CONCORDIA      CLOUDY    31  27  85 NW12      29.90F WCI  22
6HR MIN TEMP:  29; 6HR MAX TEMP:  31;

EMPORIA        CLOUDY    34  29  82 NW12      29.90F WCI  25
6HR MIN TEMP:  33; 6HR MAX TEMP:  34;

LAWRENCE       CLOUDY    35  30  82 NW16      29.88F WCI  25
6HR MIN TEMP:  34; 6HR MAX TEMP:  36; 6HR PCP:  0.01;

MANHATTAN      CLOUDY    34  29  82 NW6       29.91F
6HR MIN TEMP:  34; 6HR MAX TEMP:  35;

MARYSVILLE     CLOUDY    32  30  93 NW12      29.88F WCI  23
OLATHE IND     CLOUDY    35  32  88 NW15      29.86F WCI  25
6HR MIN TEMP:  33; 6HR MAX TEMP:  35; 6HR PCP:  0.01;

OLATHE EXE     CLOUDY    35  32  88 NW14      29.84F WCI  26
6HR MIN TEMP:  33; 6HR MAX TEMP:  35; 6HR PCP:  0.01;

SALINA         CLOUDY    34  27  75 NW8       29.93F
6HR MIN TEMP:  33; 6HR MAX TEMP:  34;

TOPEKA BILLARD CLOUDY    36  31  82 NW14      29.90F WCI  27
6HR MIN TEMP:  36; 6HR MAX TEMP:  37; 6HR PCP: TRACE;

TOPEKA FORBES  CLOUDY    35  30  82 NW15      29.88F WCI  25
6HR MIN TEMP:  35; 6HR MAX TEMP:  37; 6HR PCP: TRACE;

$$


USA.gov is the U.S. government's official web portal to all federal, state and local government web resources and services.